Theta_e
341 343 344 350 350 349 348 349 350 350 348 349 349 348 349 348 349 349 348 348 347 346 345 345 344 342 342 341 340 337 339 340 340 340 340 341 341 341 341 342 344 345 342 341 340 339 341 338 337 339 338 338 338 338 338 337 339 338 339 339 340 342 342 342 339 337 337 336 337 337 337 337 339 340 341 341 341 341 339 339 339 337 336 338 341
341 343 343 345 349 349 348 349 350 350 349 348 348 349 349 349 348 347 348 347 346 345 344 344 342 341 341 340 338 338 338 339 341 342 342 341 341 341 342 342 344 345 342 340 339 339 341 341 340 339 339 338 338 337 336 337 338 339 339 339 340 341 341 341 341 341 340 337 337 337 337 339 341 341 341 341 340 341 340 339 339 335 334 341 341
343 343 343 345 349 350 349 350 350 350 349 348 348 348 348 348 348 348 347 346 346 346 345 344 343 342 338 338 338 339 339 340 341 341 340 341 342 341 341 341 341 341 342 339 336 339 339 339 338 339 338 337 337 337 338 337 336 337 338 338 339 339 339 339 339 340 340 341 339 338 337 337 338 340 340 340 340 341 339 339 339 338 336 341 340
342 343 344 346 348 348 348 349 349 349 349 348 348 349 348 347 347 347 347 347 346 345 344 343 341 339 338 338 339 338 337 339 339 338 340 341 340 340 340 340 340 341 341 341 340 337 337 338 339 339 337 337 336 336 336 336 336 337 337 337 337 337 337 337 336 337 338 339 341 336 334 329 334 337 339 340 340 341 338 339 339 339 340 340 340
342 343 343 343 344 346 348 348 348 349 348 349 347 348 347 347 347 346 346 346 345 344 344 342 340 339 339 338 337 339 339 339 339 340 342 341 341 340 340 340 341 340 341 341 340 338 338 339 338 338 337 336 336 335 335 335 335 335 336 336 336 336 336 335 335 334 336 339 338 335 329 329 329 336 338 340 341 339 338 338 339 339 339 339 338
342 342 343 342 343 344 347 347 346 348 348 348 348 347 347 347 346 346 347 346 345 344 343 341 341 339 339 339 340 338 339 340 340 340 340 339 340 340 342 342 341 341 341 340 340 339 336 336 335 336 335 334 334 333 334 334 334 333 334 334 335 334 334 336 336 337 340 338 338 331 329 329 330 334 341 341 341 338 338 340 340 339 339 339 338
342 342 342 342 342 343 345 346 345 345 347 348 348 348 347 346 346 346 347 346 346 344 342 341 340 340 338 337 337 339 339 339 339 340 340 339 339 339 340 340 341 340 340 340 341 340 339 336 335 335 335 334 333 333 332 332 332 332 332 333 333 333 334 335 336 338 341 336 332 331 330 330 329 331 339 340 340 340 338 339 339 339 337 337 336
342 342 342 342 341 343 345 346 345 344 345 347 348 348 347 346 346 345 346 346 344 343 342 341 340 339 338 338 339 338 340 341 341 339 338 338 341 341 340 340 340 340 340 339 339 339 338 337 335 334 335 334 334 333 332 332 331 331 332 332 333 334 334 336 336 338 339 333 333 334 332 329 328 330 341 340 340 340 340 340 338 337 336 335 334
340 342 342 341 341 343 344 345 344 344 344 346 347 347 348 347 346 346 346 346 344 342 341 341 340 338 338 339 340 341 340 340 339 339 339 339 339 340 339 339 339 338 339 337 337 338 338 337 335 334 335 334 333 333 332 331 331 330 331 332 333 334 335 335 337 338 333 331 331 330 330 328 328 328 338 340 340 340 340 338 337 335 334 332 332
340 342 341 341 340 342 344 344 345 343 342 343 345 347 346 345 346 346 346 345 343 343 342 341 340 339 341 341 340 339 338 336 338 339 339 338 337 338 338 338 338 338 338 338 338 337 337 337 335 334 333 334 333 332 331 331 330 330 331 331 332 333 334 335 336 334 331 331 331 331 331 336 328 329 336 340 340 338 335 334 335 335 334 332 332
341 341 340 340 340 341 345 344 344 343 343 343 342 343 344 344 344 344 346 346 344 343 342 341 341 341 341 340 339 338 337 336 338 339 339 338 337 338 339 338 338 338 338 337 337 337 337 336 335 335 334 333 332 331 332 330 330 329 330 331 332 333 334 336 331 323 328 330 330 330 336 338 327 330 338 340 339 337 336 334 332 332 332 332 332
341 341 340 340 344 341 345 344 344 342 342 341 342 342 342 343 343 343 343 342 341 341 340 339 339 341 343 341 340 339 338 338 337 337 337 336 338 338 338 337 337 337 336 336 336 336 336 336 335 335 333 332 331 331 331 330 329 329 329 330 332 333 334 335 326 323 326 329 329 327 327 328 330 337 339 338 339 337 335 334 333 333 333 332 332
340 340 340 340 340 340 343 343 343 343 341 341 341 341 342 341 342 342 342 341 340 340 339 340 342 344 344 342 340 339 338 337 335 336 337 337 336 337 336 337 336 335 336 335 335 335 335 335 335 334 334 333 331 331 330 329 328 328 329 330 331 332 333 331 325 322 325 327 329 327 327 326 332 339 339 339 339 339 337 334 333 332 332 330 330
339 339 339 339 340 345 339 342 343 343 344 343 341 340 341 341 341 341 341 341 340 339 340 341 342 343 343 343 340 339 338 336 336 337 336 336 335 336 336 336 336 335 335 335 335 334 334 335 334 334 333 332 332 331 330 328 328 327 329 330 331 332 330 326 328 322 326 328 328 329 327 328 331 338 339 339 339 338 336 334 332 332 331 329 329
339 338 339 340 340 340 343 339 341 341 343 344 343 341 341 342 341 341 340 341 340 340 340 342 343 343 343 343 341 339 339 338 337 336 335 336 337 337 336 335 335 335 335 334 334 334 334 334 334 333 331 331 331 331 329 328 328 328 329 330 330 331 329 323 323 324 329 329 326 327 326 327 338 338 339 339 338 337 335 333 332 331 330 329 329
341 339 339 339 339 340 340 342 336 338 340 341 342 342 343 341 341 341 341 340 340 341 341 342 342 342 342 342 342 340 340 340 338 337 339 338 337 337 335 334 334 335 335 334 334 334 334 334 334 332 331 330 331 330 330 329 328 328 329 330 332 330 327 325 320 324 326 328 326 327 325 329 337 338 338 339 338 336 333 332 331 331 330 329 329
341 340 338 338 338 338 339 339 336 334 334 337 338 340 342 342 342 343 343 344 343 342 341 341 340 340 342 341 341 341 340 339 338 337 338 338 337 336 335 334 334 335 334 335 334 333 333 334 332 332 332 331 330 331 330 329 329 329 330 330 331 329 326 325 321 324 326 327 327 326 324 328 335 338 338 338 337 335 332 332 331 330 329 329 329
338 339 338 338 338 337 338 336 335 335 335 334 334 337 339 339 340 342 343 342 343 342 342 341 341 341 341 341 341 341 341 340 339 339 338 338 338 337 335 334 334 335 334 334 333 333 333 332 332 332 331 331 331 331 330 329 329 330 332 331 329 327 325 325 319 325 327 329 324 326 325 336 336 337 338 337 336 334 332 331 330 329 328 328 328
336 338 339 338 337 337 337 336 335 335 334 334 334 334 334 336 338 340 341 341 341 341 341 339 339 338 337 337 338 338 338 338 339 339 337 337 336 336 336 336 334 334 334 333 332 333 333 333 333 333 332 331 332 332 332 331 331 330 331 330 328 325 323 321 318 322 325 325 322 322 324 336 336 337 337 337 335 333 332 331 329 329 328 327 327
334 335 337 338 338 336 336 336 336 336 335 334 334 333 331 331 335 338 339 339 338 338 336 335 334 331 331 332 333 333 332 333 332 332 334 334 333 329 334 335 334 335 334 333 333 333 334 333 333 334 333 332 331 332 332 331 331 332 331 328 326 323 318 317 318 320 321 322 322 320 331 335 336 336 336 337 335 333 332 331 329 327 327 326 326
335 333 334 336 338 336 336 336 336 336 335 335 334 333 331 330 331 333 334 334 334 333 331 327 326 326 326 326 328 330 329 329 329 327 327 327 326 327 333 335 336 335 334 332 332 333 333 333 333 334 334 333 333 332 331 332 333 332 330 327 323 318 317 316 316 320 319 319 320 321 332 337 336 336 336 336 335 333 332 330 329 327 327 326 327
331 332 333 335 335 336 336 336 335 336 336 336 336 335 332 331 332 333 333 331 328 327 326 328 329 327 323 325 329 329 328 328 328 330 326 327 325 325 327 332 334 333 334 332 332 332 333 333 333 333 334 333 330 325 324 327 329 330 327 323 317 315 315 315 315 316 318 318 319 324 332 334 335 336 336 336 334 333 331 329 327 327 327 326 326
330 331 332 334 334 334 336 336 336 336 335 336 336 335 331 332 332 332 332 328 329 329 329 329 328 328 328 328 329 329 328 328 327 327 327 323 325 324 326 330 332 331 332 333 333 332 333 333 332 333 333 332 326 317 319 317 318 323 321 318 316 315 314 314 314 314 316 317 316 327 330 332 336 337 335 335 334 332 330 328 327 327 327 326 327
330 331 332 334 334 333 334 336 336 335 335 335 335 334 331 332 332 332 331 330 328 329 329 328 328 327 327 327 327 328 325 328 329 329 328 324 323 322 323 326 327 326 327 327 329 332 333 332 331 331 330 325 320 316 317 316 316 315 315 315 315 316 314 314 313 313 314 318 315 327 329 331 336 335 334 334 333 331 329 327 327 326 326 326 326
330 331 330 333 333 333 333 334 335 334 334 334 334 333 331 331 331 332 331 330 329 329 329 328 328 327 327 327 328 325 325 327 326 325 324 324 325 325 324 324 324 324 322 322 319 320 322 322 322 322 319 318 318 318 319 318 317 317 316 316 317 317 314 313 314 312 313 313 314 324 328 329 336 333 333 333 332 330 328 328 327 326 326 325 325
329 330 330 331 332 332 333 333 333 333 333 332 333 333 331 330 329 331 332 331 330 329 329 329 329 328 327 327 327 323 324 325 325 324 323 323 324 324 324 324 322 322 322 323 321 319 320 321 320 318 317 317 318 319 318 319 318 317 316 315 317 314 315 312 313 313 313 311 313 322 326 327 330 333 333 332 331 329 328 328 327 326 325 325 325
326 330 331 331 332 332 332 333 332 332 332 332 331 332 331 331 330 330 331 331 331 329 329 329 329 329 328 327 326 322 323 324 323 323 323 322 322 323 323 323 322 320 320 321 321 319 319 318 319 319 318 317 317 318 318 319 319 317 317 317 316 316 315 314 313 312 312 310 312 320 324 326 326 330 333 331 332 330 327 325 325 325 325 325 325
327 327 330 330 330 332 332 332 332 331 331 332 331 330 332 331 331 328 330 330 330 330 330 329 330 329 329 328 326 323 322 321 322 321 322 322 322 322 322 322 322 322 321 319 320 319 319 318 318 319 319 319 318 318 318 318 318 317 317 317 316 316 314 313 313 313 312 308 309 316 322 326 325 326 330 332 333 331 329 325 326 325 325 324 324
327 326 328 329 329 331 331 331 332 331 331 332 331 330 330 330 330 329 329 328 331 331 330 329 329 329 329 328 326 323 322 321 320 320 319 320 321 322 322 322 322 322 322 321 320 318 318 318 317 318 319 319 318 318 317 317 316 317 316 316 316 315 314 314 313 313 311 307 308 310 320 324 326 326 327 329 331 334 329 328 326 325 325 325 324
327 327 326 327 329 330 331 331 331 332 331 331 331 330 329 329 329 329 329 326 329 330 330 328 328 329 328 328 327 325 322 321 321 319 318 319 319 319 321 321 322 322 321 321 320 318 317 317 316 316 318 318 318 318 316 317 318 318 316 317 316 317 317 315 313 313 313 311 309 308 316 321 324 326 327 327 328 331 329 328 327 326 325 325 324
326 326 327 327 327 329 330 330 331 330 331 330 330 330 329 329 329 329 329 328 328 328 328 328 327 328 328 328 327 326 324 322 321 320 319 318 318 318 318 318 318 318 319 320 318 318 317 317 317 316 316 317 317 317 316 317 316 316 317 317 318 317 317 316 314 314 313 312 310 307 310 317 321 325 327 326 327 330 330 329 328 327 326 325 324
324 326 327 327 326 328 330 330 330 330 330 331 329 330 329 328 329 329 328 329 328 327 327 327 325 326 327 328 327 326 324 323 321 319 319 318 317 318 318 318 318 318 317 319 318 318 317 317 317 317 316 316 316 316 317 316 316 317 316 317 318 318 317 316 315 314 313 312 310 308 307 312 317 321 324 326 327 328 330 331 330 329 327 326 326
327 327 328 327 327 327 329 329 330 330 330 331 330 330 330 329 328 329 329 329 328 328 327 327 326 326 325 327 327 327 325 324 321 320 317 318 317 317 317 318 318 318 318 318 318 318 317 315 315 316 314 314 315 316 317 316 315 316 315 317 318 318 318 317 315 314 313 313 311 309 309 308 310 316 318 322 326 327 328 331 331 329 328 327 327
327 326 327 327 329 329 329 330 329 329 329 331 331 330 330 330 328 328 327 328 329 328 328 328 328 327 326 325 327 326 325 325 323 320 318 317 317 317 317 317 318 318 318 318 318 318 317 315 314 313 314 313 314 315 315 315 314 314 314 316 317 318 318 317 315 314 313 314 313 311 312 310 308 311 313 317 320 324 326 328 331 330 328 328 328
327 326 326 328 328 329 329 329 328 329 328 329 329 330 330 330 329 328 328 328 329 329 329 329 329 329 328 326 326 325 324 324 323 322 319 318 317 317 317 318 318 318 318 318 318 317 317 316 314 313 313 313 314 315 315 315 314 316 316 315 316 316 316 317 316 314 313 314 314 313 312 311 310 309 311 310 313 318 322 326 328 331 331 328 327
327 327 327 328 328 329 328 328 328 328 329 329 329 330 330 330 330 327 329 328 328 329 329 329 329 328 328 328 327 326 324 324 323 322 320 319 318 318 318 318 317 317 318 318 317 317 316 315 314 314 313 313 314 314 313 313 313 314 315 315 314 315 315 315 316 315 314 314 313 313 313 311 310 309 310 310 310 312 318 321 325 328 331 330 327
328 328 327 327 327 328 327 328 327 327 328 329 329 329 329 329 329 329 329 328 327 328 329 329 329 328 328 328 327 327 325 325 324 323 321 320 319 318 318 318 317 317 317 316 316 317 316 316 314 313 315 313 312 312 312 312 313 313 314 314 315 314 314 315 315 315 315 313 312 312 312 312 310 309 308 311 312 312 314 317 321 324 325 327 329
327 327 328 328 327 328 328 328 328 328 328 328 329 329 329 329 329 329 327 329 328 328 329 329 329 329 329 328 328 328 327 326 326 325 323 321 320 319 319 319 318 317 316 315 315 316 316 316 314 313 314 313 312 312 311 311 312 313 314 315 315 314 314 315 314 312 314 313 312 312 313 313 312 311 309 309 311 312 313 315 317 318 318 319 325
326 327 327 328 327 327 327 326 327 328 328 328 328 328 328 328 328 328 327 328 328 328 328 328 329 329 329 328 328 328 326 328 327 326 325 323 320 319 319 319 319 318 317 315 314 314 315 315 315 313 313 314 313 312 312 312 312 313 314 315 315 315 315 315 314 313 313 314 314 313 313 313 312 312 311 309 308 310 311 311 311 314 316 316 322
324 325 325 327 326 326 327 327 326 327 327 328 328 327 326 325 325 325 325 326 327 327 328 329 329 328 329 328 328 328 327 327 328 328 327 325 322 319 318 319 319 319 318 316 315 314 314 314 314 314 313 312 312 313 313 312 312 312 312 314 315 315 314 314 314 315 314 314 314 313 313 313 312 312 312 311 309 309 310 311 309 311 312 314 316
321 322 323 325 326 326 325 325 326 327 327 326 326 326 325 324 324 324 325 326 326 327 327 328 329 329 328 328 328 328 328 327 327 327 327 325 325 323 319 318 319 319 319 318 318 316 315 315 314 313 313 312 312 312 313 312 311 309 311 311 313 314 314 313 315 315 314 314 313 313 312 312 312 311 312 311 310 309 310 311 311 311 311 311 312
318 319 320 322 325 326 326 326 326 326 327 327 327 327 327 327 325 325 325 325 325 324 325 327 328 329 328 328 328 328 329 328 326 327 326 327 326 325 323 320 319 319 319 319 318 315 315 315 314 312 313 313 313 313 314 312 310 309 306 306 308 311 313 312 313 315 315 315 313 313 312 312 311 311 311 311 311 310 310 311 311 311 311 311 310
317 319 320 319 321 323 326 326 327 327 327 327 327 327 328 327 327 326 326 324 326 327 327 326 327 328 328 328 328 328 329 328 328 326 327 326 326 326 324 322 320 319 318 318 318 317 317 316 315 314 312 312 313 313 314 315 311 309 305 305 304 306 308 309 312 314 315 315 314 313 312 312 312 311 311 310 310 310 309 310 310 310 310 310 310
314 316 318 319 320 321 323 325 326 327 327 327 325 328 328 328 327 327 325 325 324 324 325 324 326 327 327 328 328 328 328 328 328 327 326 327 326 325 325 324 322 320 319 318 317 317 317 317 316 314 314 311 312 312 314 315 314 310 304 307 301 300 299 305 310 313 315 315 314 314 312 312 312 311 309 309 310 310 309 309 310 310 310 309 309
315 315 318 319 321 320 322 324 326 326 327 326 326 326 326 324 325 323 320 321 319 320 322 323 324 325 326 326 327 328 328 328 328 328 326 326 326 326 325 325 323 320 319 319 318 318 318 318 317 316 314 313 312 313 313 315 315 316 311 303 301 299 303 300 302 307 311 313 314 314 313 311 310 309 308 309 309 309 309 309 309 309 309 309 308
314 315 316 319 320 320 321 322 323 325 326 327 326 326 325 325 323 323 321 320 320 320 320 321 322 323 324 326 327 327 328 328 328 328 327 325 326 326 325 324 323 321 319 319 319 318 318 318 318 317 316 315 314 312 311 312 315 315 315 313 308 304 301 300 303 301 300 312 313 314 313 312 312 309 308 308 308 308 308 309 309 309 308 308 308
314 315 315 315 316 318 320 321 322 323 325 325 326 325 325 325 324 324 323 322 321 322 323 324 324 325 325 325 326 326 327 327 327 328 327 327 326 326 326 325 324 323 320 319 318 318 318 318 318 317 317 316 315 312 311 312 312 314 315 315 311 304 303 304 303 300 301 300 307 310 311 312 312 310 308 308 308 308 308 308 309 309 308 307 307
315 314 314 314 314 315 316 320 322 321 323 324 325 325 325 325 324 324 323 323 322 322 322 323 324 324 324 324 324 325 326 327 327 327 327 327 326 326 326 325 324 324 321 319 319 319 319 319 318 318 318 316 315 313 312 313 311 313 315 314 313 312 308 305 301 305 299 295 300 303 307 310 311 311 311 309 308 308 308 307 308 308 308 307 306
311 313 314 314 315 315 314 316 319 321 321 322 324 325 324 325 324 324 323 323 324 323 322 321 321 322 322 323 323 323 324 325 326 326 327 327 325 325 326 325 324 323 320 320 319 319 318 318 317 317 317 317 316 316 314 313 313 312 313 312 313 313 312 310 308 304 303 298 303 303 304 303 306 309 310 311 311 310 309 309 308 308 307 307 306
309 310 311 312 313 313 314 313 315 318 320 321 321 323 324 323 324 323 323 323 322 321 319 320 320 320 321 321 322 322 323 323 324 325 325 326 326 325 325 325 324 324 320 321 320 319 319 318 318 317 317 316 317 316 315 314 313 313 313 313 312 312 310 310 308 307 305 306 306 302 303 303 304 308 310 310 311 311 311 310 308 307 307 306 306
307 308 310 310 311 311 312 313 314 315 316 319 320 321 323 323 323 323 322 322 322 321 320 320 319 319 320 321 321 321 322 322 323 323 324 325 325 324 324 325 324 322 320 321 320 320 319 319 318 318 317 317 316 316 314 314 313 312 313 313 313 312 311 309 309 309 307 304 304 306 307 304 306 307 307 309 310 311 311 310 309 308 307 307 306
Wind_Speed
3 7 3 5 8 10 10 9 10 10 11 10 11 12 12 12 12 12 13 13 14 14 14 13 13 12 11 11 11 10 9 10 11 9 10 13 13 12 11 13 14 15 15 15 14 14 14 14 14 13 13 14 14 14 14 14 13 13 13 12 13 12 12 12 13 13 12 13 12 14 12 11 11 12 12 13 12 13 10 11 10 8 7 11 17
7 6 3 5 8 10 10 9 10 10 10 10 10 11 12 12 11 12 13 13 13 13 14 13 12 11 11 11 11 11 11 11 10 12 12 13 13 13 12 12 15 15 15 14 13 14 15 14 14 14 14 13 13 12 12 13 13 12 12 12 12 12 11 11 9 8 10 11 12 12 11 13 12 12 12 12 12 12 8 11 13 6 4 15 16
9 7 4 5 7 8 10 10 10 10 9 10 10 10 11 11 11 12 12 13 13 14 13 14 12 12 11 9 11 12 12 11 11 12 12 13 12 12 12 12 13 14 14 13 11 14 13 14 14 14 13 13 13 12 12 11 11 10 10 10 10 10 10 10 10 11 10 8 9 11 10 11 12 12 11 12 12 13 9 11 12 12 9 17 15
11 6 5 6 7 8 10 11 10 11 10 9 10 10 10 11 11 11 12 13 14 13 13 13 13 11 9 11 12 11 11 12 11 11 12 12 12 12 11 11 12 13 14 14 14 13 13 13 14 13 13 13 12 12 11 10 9 9 8 9 9 8 9 8 8 8 8 6 5 4 3 4 5 10 11 12 12 13 10 12 13 14 16 16 17
10 8 5 5 5 7 8 10 11 10 10 10 9 10 10 11 10 11 12 13 13 13 14 13 14 10 11 11 9 12 11 11 12 12 13 13 12 11 11 12 12 12 13 13 13 13 13 13 13 13 12 12 11 11 10 9 9 8 7 7 7 7 7 7 6 5 4 5 5 4 2 3 2 6 10 11 12 11 11 14 15 15 15 16 16
9 8 6 5 4 6 8 9 11 11 9 9 9 9 10 9 9 10 12 12 13 13 13 12 14 9 10 11 11 11 11 12 11 12 12 12 11 12 13 12 12 12 12 12 12 13 13 13 12 12 12 11 10 11 9 9 8 6 6 7 7 7 7 7 7 6 4 5 6 3 3 4 3 2 12 11 12 9 13 15 15 15 15 16 15
12 7 7 6 5 5 8 9 9 10 10 9 9 9 9 8 9 10 9 10 13 12 13 12 11 13 10 10 10 11 12 12 12 12 12 11 11 11 11 11 11 11 11 12 12 12 13 12 11 11 11 11 11 10 9 8 7 6 6 8 7 8 9 9 8 7 5 4 4 3 4 3 2 2 11 10 12 13 13 15 15 15 14 14 14
9 7 8 7 5 7 9 8 9 9 10 9 9 8 7 9 9 9 11 10 12 12 12 13 12 12 10 10 10 11 12 12 12 12 10 10 12 11 11 11 12 11 11 12 11 11 12 12 11 10 10 10 10 9 8 7 7 7 8 8 9 9 10 11 10 7 3 2 3 3 5 3 2 2 11 9 11 12 13 14 14 14 14 14 11
9 8 7 7 6 10 9 9 11 10 9 9 9 8 9 9 10 10 10 10 11 12 12 12 12 10 10 11 11 11 11 11 11 11 10 10 10 11 11 10 10 11 10 10 10 10 11 10 10 9 10 9 9 9 8 7 7 8 8 9 9 10 11 11 10 4 3 2 3 3 3 2 1 1 9 11 12 13 13 11 11 14 14 13 13
8 9 8 7 6 10 9 9 10 10 10 8 8 9 9 10 11 11 10 10 11 11 12 12 12 10 12 12 11 11 11 10 10 11 10 10 9 10 10 10 9 10 10 10 9 9 9 10 10 8 9 9 8 7 7 7 7 7 8 9 9 10 11 10 9 5 3 3 3 3 3 4 1 1 6 10 13 14 13 9 8 7 8 13 13
10 9 8 7 8 10 10 9 9 10 10 9 7 8 9 9 9 10 12 10 10 10 10 10 11 11 11 12 12 11 9 9 10 10 9 9 9 9 10 9 10 9 9 9 9 9 9 9 9 9 9 8 7 7 6 6 6 7 8 8 9 10 10 9 6 2 3 4 3 1 4 6 3 1 9 13 14 14 10 12 12 13 13 13 13
10 8 7 7 9 10 9 9 9 10 9 8 8 9 7 8 10 10 9 8 7 7 7 7 8 11 11 11 12 12 11 10 10 10 9 9 9 9 8 9 8 8 8 8 9 8 8 8 8 8 7 7 6 6 5 5 5 6 7 7 8 9 10 8 4 2 4 4 3 2 2 2 2 4 11 11 14 14 13 12 12 13 13 13 12
9 7 7 6 6 8 9 9 8 8 8 8 7 7 7 3 9 9 8 8 8 7 7 7 7 10 11 9 12 11 11 10 9 9 9 9 9 8 8 8 8 8 8 8 8 8 8 8 8 7 7 7 5 5 4 4 4 5 5 6 8 10 9 9 2 3 3 4 3 3 3 3 4 7 10 12 13 14 13 12 12 12 12 12 12
9 8 7 6 5 9 10 9 8 7 6 6 6 5 6 3 9 8 9 8 8 8 9 8 8 10 11 10 11 11 11 11 10 10 9 8 8 8 8 8 8 7 7 7 7 7 7 7 7 8 7 6 5 4 4 3 3 4 4 6 8 8 9 5 5 3 4 4 3 3 3 2 2 7 10 11 12 14 13 12 12 12 12 11 11
11 10 8 7 6 5 10 9 9 8 7 6 5 5 5 5 8 8 9 9 8 8 9 9 9 10 11 10 9 12 12 12 11 10 9 8 9 8 7 7 7 7 6 6 6 7 7 7 7 7 6 4 4 4 3 2 2 3 4 5 5 5 8 4 3 3 4 4 3 3 3 2 7 9 11 12 13 13 12 11 12 12 11 11 11
13 10 10 8 7 6 6 8 10 10 9 7 5 3 3 2 4 3 9 8 8 10 9 10 10 10 9 10 10 11 12 13 11 10 8 10 9 9 8 7 7 6 6 6 6 6 7 7 7 6 5 5 4 4 3 1 2 3 4 5 5 6 7 4 2 3 4 4 3 2 2 2 5 8 11 13 13 12 12 12 11 11 11 11 11
11 10 9 9 8 6 6 6 7 11 10 9 7 6 5 6 5 4 7 7 10 10 10 9 9 10 11 10 9 8 9 8 11 11 11 10 11 9 8 8 8 6 6 6 6 6 6 6 6 5 5 4 4 4 3 2 3 4 5 5 5 5 6 5 1 3 4 3 3 2 2 1 3 9 11 12 13 12 11 11 11 11 10 11 11
10 10 9 9 8 7 6 6 6 6 5 8 9 8 7 7 6 5 9 10 9 9 9 9 8 8 10 10 9 9 9 6 6 9 11 10 7 7 8 8 8 7 6 6 6 6 6 7 6 5 4 5 4 4 3 3 4 5 5 6 6 7 7 5 0 4 4 4 3 1 1 2 6 8 10 11 11 12 11 9 10 10 10 10 10
7 9 9 9 9 8 7 7 6 6 6 6 5 6 9 8 7 8 9 10 8 8 9 10 9 8 9 9 8 8 8 7 7 7 6 6 7 7 7 6 8 7 6 5 6 6 7 6 6 5 5 5 5 5 5 5 5 4 5 6 7 7 8 3 1 3 4 4 3 2 2 3 6 9 10 12 13 12 10 9 8 10 10 10 10
5 6 9 8 9 9 8 7 7 7 6 6 6 6 7 9 9 10 10 10 10 10 10 10 11 10 9 9 9 7 7 6 9 6 7 7 7 6 6 5 8 8 6 5 5 6 6 6 6 6 6 6 6 7 7 6 5 5 5 6 6 6 5 2 2 3 2 3 2 1 4 2 7 9 10 11 13 12 11 9 8 8 9 9 9
4 5 5 7 9 10 10 8 8 8 8 7 6 7 7 9 8 11 11 11 11 11 10 11 10 9 9 9 9 7 5 5 6 4 6 4 7 7 6 5 7 7 6 6 6 6 6 6 6 7 8 8 7 7 7 7 6 6 5 6 6 4 4 1 2 4 3 1 2 1 3 2 7 9 10 10 12 10 9 9 7 8 8 8 9
6 6 5 6 8 8 11 10 8 9 9 8 6 6 6 8 6 6 7 9 9 9 9 8 8 6 8 7 5 5 5 5 5 6 5 5 4 8 8 6 6 6 6 7 7 7 6 7 7 9 9 8 8 4 5 6 8 7 6 5 4 3 4 2 4 4 3 2 0 2 2 4 7 9 10 11 9 7 7 7 6 8 8 8 8
6 6 6 7 7 7 9 10 9 10 10 9 7 7 8 7 7 7 6 8 9 9 8 8 6 7 7 7 5 5 5 5 6 6 6 7 6 5 7 10 6 6 4 5 7 8 8 8 8 9 9 8 6 3 5 4 5 7 5 3 4 4 3 1 2 3 3 3 1 1 3 4 5 9 11 11 10 8 8 7 6 8 8 8 8
5 5 6 5 6 6 8 10 10 10 10 8 7 7 7 7 7 7 7 7 7 7 8 8 7 7 7 7 6 6 5 5 7 12 9 5 5 7 5 4 8 6 5 3 3 6 9 9 6 8 5 3 4 4 5 4 5 3 3 3 4 4 2 1 1 3 3 3 2 1 2 3 8 12 10 10 9 8 8 7 8 8 8 8 8
6 4 4 6 5 5 6 6 7 7 8 7 7 7 7 7 6 6 7 6 6 6 6 7 7 8 8 7 7 5 6 6 6 6 5 6 5 4 4 3 2 4 2 2 2 3 1 2 4 6 4 4 5 5 4 5 5 5 5 5 4 5 3 2 3 3 3 3 2 2 1 4 7 11 9 10 8 8 7 8 8 9 8 8 8
6 7 8 7 6 6 6 6 6 6 7 7 7 7 8 7 6 7 7 6 6 6 6 6 6 7 7 7 7 6 6 7 7 7 7 7 6 5 5 5 4 5 5 4 4 4 4 4 4 6 6 5 5 5 6 6 6 6 6 4 6 4 5 3 3 5 4 3 3 5 2 3 5 4 11 10 9 8 8 10 10 10 10 9 8
7 9 8 8 8 7 7 7 7 6 7 6 6 7 7 7 7 7 7 7 6 7 7 6 6 7 7 7 7 6 7 7 7 7 7 6 7 6 6 5 6 5 5 6 6 5 5 5 5 6 6 5 5 5 6 8 7 6 6 6 5 5 4 4 4 3 5 4 4 6 5 2 2 4 3 8 11 11 9 8 9 11 10 10 9
8 8 9 8 8 10 8 8 8 8 7 7 7 7 7 7 8 8 9 9 8 8 8 7 7 7 7 7 7 6 7 7 7 7 7 7 7 7 6 6 6 6 6 6 6 6 6 6 6 6 7 6 5 5 6 7 7 5 5 5 4 5 4 4 4 4 5 5 4 6 7 6 2 3 4 3 12 13 12 9 11 12 11 11 11
10 10 10 10 10 10 9 9 9 9 8 8 8 7 7 7 7 8 9 9 9 8 8 8 8 7 7 8 7 6 6 7 7 7 6 7 7 7 7 6 6 6 6 6 7 7 7 6 6 7 6 6 6 6 6 4 4 3 5 4 4 4 5 4 4 4 5 5 5 6 8 8 6 6 5 6 7 14 12 13 13 12 13 13 12
12 11 9 10 9 10 11 11 10 10 9 8 8 7 7 8 8 8 8 8 8 8 8 7 8 8 8 8 8 7 7 6 7 6 6 6 6 7 7 7 7 7 7 7 7 7 7 7 7 7 7 7 6 6 6 5 5 5 4 5 5 6 6 5 4 6 5 5 6 6 9 9 9 7 7 5 7 10 14 13 12 13 14 13 13
8 10 10 9 9 10 11 11 10 9 7 8 7 8 7 7 8 7 7 8 8 8 7 7 7 8 8 8 8 8 7 6 6 6 6 6 6 7 7 7 7 7 7 7 7 7 6 7 8 7 7 7 7 6 6 6 5 5 5 6 6 6 6 6 5 5 4 6 6 5 6 10 10 10 8 8 8 9 14 13 14 13 14 14 14
10 12 11 9 9 12 12 11 11 10 10 9 8 9 8 7 7 7 7 7 7 7 7 7 7 7 7 8 8 8 7 7 7 6 7 7 7 7 7 7 7 6 6 6 6 6 6 6 7 7 7 7 6 6 5 6 7 6 5 6 7 7 7 6 6 6 5 4 5 6 5 6 10 11 10 10 10 9 10 15 15 14 14 15 15
10 11 11 9 12 11 11 12 11 11 12 12 10 9 9 8 7 8 7 7 7 7 7 7 7 7 7 8 8 8 7 7 7 7 6 7 8 8 7 8 7 7 6 6 6 6 6 6 7 6 6 6 6 7 5 6 6 7 5 6 6 7 6 5 6 6 5 4 5 6 6 5 4 9 11 11 11 10 10 13 16 16 15 16 17
10 7 8 12 11 8 9 9 10 12 13 11 10 9 10 9 7 7 7 8 8 8 8 7 7 7 7 8 8 8 8 8 7 6 6 6 7 8 8 8 7 7 7 7 7 6 7 6 7 6 7 7 7 8 7 7 6 6 6 5 6 7 6 6 6 6 6 6 6 5 6 6 6 5 6 11 11 10 10 11 15 17 16 16 17
8 7 11 14 11 10 8 8 10 12 11 11 12 12 10 10 9 8 7 8 8 8 8 8 8 8 7 7 9 9 9 8 8 8 6 6 7 8 8 8 7 7 7 7 7 7 7 8 7 7 7 7 7 8 7 7 6 6 7 5 6 6 5 6 6 6 6 6 6 5 6 6 6 6 6 6 9 12 11 11 13 17 18 17 16
12 12 11 9 11 10 10 10 10 12 12 13 12 11 11 11 10 9 8 7 7 8 8 9 8 8 8 8 9 9 9 9 9 8 8 7 7 8 8 7 8 7 8 8 7 8 8 7 7 7 7 7 7 7 5 6 5 6 6 6 5 6 6 7 7 6 6 6 6 6 6 6 6 6 6 7 7 8 13 12 12 12 16 18 17
12 11 11 10 10 11 12 12 13 15 14 14 12 10 10 11 11 10 10 8 8 8 8 8 8 9 9 9 9 9 10 10 10 9 8 8 7 8 7 8 8 8 8 8 8 8 8 8 7 7 7 7 7 6 6 5 6 6 6 6 6 6 7 7 7 7 6 6 7 7 6 6 7 8 7 7 7 7 10 13 13 13 13 13 16
11 12 12 13 13 12 12 13 13 14 13 12 11 11 10 10 9 9 9 10 9 8 8 8 9 9 9 10 9 9 10 11 11 10 9 9 8 7 7 8 8 8 8 8 9 8 8 8 8 7 7 7 7 8 8 6 6 7 7 7 7 7 8 8 7 7 7 7 7 8 8 8 7 7 7 7 7 7 7 9 12 13 13 12 11
10 12 11 12 10 10 10 12 12 11 10 9 10 10 8 7 7 8 8 9 8 8 8 8 9 9 10 10 10 10 10 11 11 11 9 9 8 8 8 8 8 8 8 8 8 9 9 9 10 8 7 8 8 8 8 7 7 7 8 9 8 8 7 7 7 7 7 8 9 9 8 8 7 7 7 7 7 6 7 7 6 6 8 12 11
10 10 12 11 10 10 9 9 10 9 8 8 8 8 7 8 9 7 8 10 10 9 9 9 8 9 10 10 10 10 10 10 12 11 10 9 9 8 8 8 8 8 9 9 10 10 11 11 11 11 9 7 7 8 7 7 7 7 8 8 8 8 7 7 8 8 8 8 8 8 8 8 8 8 8 7 7 7 7 7 7 7 7 9 12
9 10 11 11 12 12 10 12 11 10 9 9 9 10 10 9 8 10 12 11 11 10 9 10 9 10 11 10 10 10 10 10 11 12 12 10 9 8 8 8 9 9 10 11 10 10 10 10 9 8 11 10 9 7 7 7 7 6 6 7 7 6 8 8 9 8 9 9 8 8 8 8 8 8 8 7 7 7 7 7 7 7 7 7 8
9 9 11 12 12 11 12 12 9 10 11 12 11 11 12 12 13 13 12 10 10 11 12 11 11 10 10 10 10 10 11 11 11 11 12 12 10 9 10 10 9 9 10 8 8 9 9 9 8 7 8 12 10 9 8 7 7 9 5 4 5 6 7 7 8 10 10 9 8 8 8 9 9 9 7 7 8 8 8 8 8 8 8 7 7
12 12 12 9 9 10 11 10 10 11 12 12 11 12 11 11 11 10 11 8 8 9 9 9 9 10 10 10 10 11 12 11 11 11 11 12 13 11 10 10 10 9 9 9 9 10 10 12 11 11 8 7 8 6 10 12 10 5 2 1 6 4 5 5 8 10 10 10 8 9 9 9 12 9 8 8 8 8 8 8 8 8 8 8 8
8 7 7 10 9 10 10 10 11 12 12 13 13 13 12 10 9 7 5 7 6 6 7 6 8 9 10 10 11 11 12 12 12 12 11 11 13 13 11 10 11 10 10 10 10 12 11 11 11 12 9 8 8 10 10 12 9 9 4 10 3 2 5 10 12 10 10 11 10 11 8 10 10 9 7 9 9 8 8 8 9 9 9 9 8
9 9 9 9 9 12 12 12 12 12 12 12 13 10 7 5 5 4 2 3 3 4 6 9 10 10 10 11 14 11 12 12 12 13 12 13 12 12 12 11 11 11 11 11 11 12 12 11 12 11 12 12 11 8 8 10 13 11 8 5 1 2 9 4 2 7 6 9 11 12 10 9 9 9 9 9 8 9 9 9 9 9 10 9 9
8 9 9 11 10 10 9 10 9 10 11 11 11 9 9 9 8 8 9 8 10 9 12 15 12 13 14 12 9 11 12 12 12 13 13 12 13 13 13 12 12 11 11 12 11 10 12 12 13 13 13 13 10 8 8 7 11 13 14 9 6 8 4 4 3 7 2 8 8 9 11 11 10 9 9 9 9 9 8 10 9 10 10 9 9
9 8 7 8 8 8 7 9 9 9 8 7 9 9 9 9 11 12 12 13 13 12 11 9 10 10 8 9 10 10 11 13 13 13 13 13 13 13 13 13 13 12 11 11 12 13 13 13 11 12 13 11 10 10 12 10 6 9 11 13 10 3 4 5 7 1 6 3 5 8 10 10 10 10 10 10 10 10 9 9 11 11 10 9 9
8 5 6 6 7 9 8 8 8 8 7 7 9 11 11 11 11 12 12 13 14 13 9 9 7 6 8 10 9 9 11 12 13 13 14 14 13 14 14 13 13 13 12 12 13 12 11 11 12 13 11 11 12 13 12 10 12 12 12 12 14 12 6 3 3 7 4 3 4 3 5 7 9 10 11 11 12 12 11 10 11 11 9 9 9
4 5 6 7 7 7 8 6 7 7 6 7 9 10 11 12 12 11 12 12 12 10 5 6 7 7 9 9 9 10 10 12 13 14 14 15 13 14 14 14 14 14 12 12 12 12 14 13 13 12 14 13 12 13 11 11 11 10 9 12 11 11 10 10 6 2 5 4 9 7 8 3 6 9 10 11 11 11 12 12 11 11 10 10 10
3 3 4 4 5 5 6 6 7 6 6 6 7 9 11 11 11 12 13 12 8 7 4 6 6 6 10 11 10 10 10 10 12 14 14 14 14 14 14 16 16 14 12 13 12 13 13 14 14 14 14 14 12 12 14 11 9 9 9 9 10 10 8 9 9 9 7 8 12 6 7 8 10 11 11 11 13 13 11 11 11 10 10 10 10
4 4 4 3 4 4 5 5 7 4 4 5 7 9 10 10 11 12 12 12 9 8 8 8 7 7 10 11 10 11 10 11 10 11 14 14 14 13 14 15 14 13 13 13 14 14 13 13 13 13 14 15 13 13 13 12 10 10 11 10 12 13 14 13 15 12 12 9 8 12 10 9 12 11 9 11 11 13 12 11 11 11 11 11 10
Wind_Direction
155 134 163 143 118 119 114 115 119 121 124 121 121 119 122 119 116 114 112 109 107 101 98 97 95 91 88 90 100 107 103 100 95 92 95 83 77 75 82 91 89 87 86 88 87 88 84 85 88 88 82 80 80 77 78 78 75 76 76 78 81 83 71 59 65 76 76 78 72 83 81 76 72 69 67 66 73 74 71 76 75 82 80 87 88
152 138 148 129 129 121 118 114 114 117 117 123 120 123 119 116 118 118 112 110 108 107 103 98 95 93 94 100 98 94 101 102 98 92 90 91 86 85 84 86 87 86 87 87 89 89 94 92 86 83 84 84 81 83 84 86 83 77 81 82 80 73 59 54 47 46 73 81 80 70 70 73 67 70 68 71 77 80 80 90 91 84 92 88 85
133 131 137 132 129 121 119 119 113 112 117 116 122 121 117 119 118 119 117 114 113 110 107 106 102 100 98 89 90 97 99 101 104 95 90 87 86 87 92 93 90 92 89 88 88 89 88 85 86 87 86 83 81 83 83 82 84 77 79 82 73 58 51 43 29 27 15 37 55 68 58 60 75 73 71 73 77 82 90 97 98 97 95 90 85
130 133 129 131 126 119 118 115 107 109 114 118 119 117 120 119 127 127 124 118 113 109 107 104 100 100 102 98 102 94 100 109 101 100 94 88 89 95 98 97 96 93 93 92 92 91 90 89 87 86 85 85 87 85 83 86 77 64 61 57 50 47 51 48 40 23 12 0 349 70 69 54 43 72 76 76 79 85 92 100 97 96 97 96 91
128 133 129 127 125 121 117 118 113 111 116 121 122 128 125 123 125 130 122 120 118 115 114 112 107 108 103 93 86 106 107 98 98 99 98 97 97 101 100 94 94 97 96 92 94 92 89 88 87 86 86 84 83 87 87 78 64 53 48 43 38 35 30 25 26 29 359 349 100 86 60 31 3 78 83 81 88 94 105 104 104 97 90 88 90
134 131 130 123 118 120 123 124 121 118 117 118 120 123 127 127 133 124 126 127 120 119 116 116 113 109 102 105 109 101 101 104 109 107 102 102 101 101 101 105 103 103 102 100 97 99 98 92 96 96 89 86 85 82 80 71 57 43 35 31 24 17 12 8 4 359 20 74 73 69 65 44 28 338 99 98 103 103 106 102 99 94 88 88 89
132 134 132 123 121 124 124 126 125 124 123 120 121 125 126 126 122 122 118 127 121 120 117 115 111 114 109 109 108 112 113 112 105 106 109 112 113 108 103 101 104 102 101 100 99 102 101 101 94 89 90 89 88 89 84 72 54 36 30 25 19 7 360 358 356 353 4 97 93 85 77 59 8 312 81 94 113 117 112 104 98 93 92 90 90
128 140 137 133 131 129 127 127 128 122 125 121 123 125 126 127 119 116 129 131 123 118 117 112 111 115 122 116 114 112 108 111 111 107 102 108 102 105 103 103 104 105 104 103 102 100 102 99 101 101 97 96 87 82 82 73 52 29 23 19 15 4 359 353 349 341 15 89 96 93 86 75 21 340 88 93 109 109 106 101 93 91 92 90 82
137 138 130 131 133 132 131 134 131 129 126 126 123 121 125 127 127 131 130 134 122 117 116 115 117 122 117 110 117 115 113 114 113 111 110 109 110 108 109 106 108 107 106 104 104 104 102 102 98 103 101 92 91 85 77 65 49 24 17 16 9 1 357 350 343 56 100 90 86 88 98 104 71 360 102 108 105 107 97 85 91 94 95 96 96
129 123 131 130 133 133 134 135 134 136 134 135 133 136 126 126 129 129 129 133 123 119 120 122 121 129 125 123 120 122 122 121 120 116 119 119 120 118 106 107 104 103 101 105 106 108 107 105 100 89 91 90 83 83 74 63 45 24 11 14 4 358 353 352 11 80 100 81 59 96 120 127 114 60 102 111 107 101 96 95 100 99 97 98 98
119 126 129 131 138 136 135 132 132 134 134 137 146 141 132 125 116 115 133 133 125 123 126 127 133 136 136 133 131 129 125 121 125 126 127 120 105 101 106 112 116 115 117 112 112 111 106 102 100 99 95 95 90 85 75 60 45 25 10 7 1 356 354 357 26 352 87 85 71 64 123 131 131 148 116 118 114 112 108 106 105 105 103 102 100
118 124 126 130 134 135 133 133 135 134 136 143 148 151 132 143 123 128 131 135 139 140 143 139 141 143 143 139 135 130 130 133 133 137 139 122 118 118 119 110 117 114 114 115 108 111 113 112 108 106 99 94 96 89 84 64 39 22 15 3 357 355 357 351 22 57 71 80 86 81 54 52 87 114 122 127 123 122 120 115 110 105 104 103 103
114 117 121 125 127 124 126 127 130 133 137 139 146 154 141 143 146 140 136 135 138 141 146 129 126 135 139 143 138 135 137 138 142 137 131 126 131 124 121 120 113 115 112 111 114 114 116 115 113 111 105 98 98 97 84 70 39 21 13 7 357 0 354 346 6 23 54 56 61 55 36 53 106 130 137 138 131 124 117 112 110 108 108 108 106
119 121 124 126 126 124 125 127 126 123 119 123 133 144 158 178 159 151 146 144 147 154 143 145 146 147 147 149 143 139 141 140 134 131 136 139 131 127 126 123 124 115 117 116 118 120 114 116 115 112 109 110 106 101 92 68 38 18 8 4 3 355 353 343 354 57 64 68 57 53 29 2 134 124 139 140 133 121 115 114 114 113 112 111 109
129 134 131 132 130 131 131 133 130 118 113 118 135 154 160 171 152 156 154 155 164 155 148 144 147 149 152 154 148 146 145 142 143 144 141 134 130 134 133 136 134 123 123 125 124 127 122 127 127 112 115 121 118 119 107 75 14 4 357 357 353 344 359 356 344 59 66 59 40 38 22 326 112 139 144 135 134 122 120 118 116 116 115 113 111
134 138 136 139 141 142 139 144 140 132 128 128 131 133 145 110 83 159 153 168 160 147 146 141 135 135 147 153 151 147 149 148 149 149 136 135 141 138 133 127 127 134 141 141 139 133 128 127 121 122 130 129 131 126 125 138 308 315 334 340 346 351 349 3 20 74 76 70 53 41 9 351 125 133 145 138 128 122 123 121 121 120 121 118 114
133 136 138 146 147 148 150 151 151 142 140 139 135 120 108 94 93 92 150 139 139 143 145 143 140 140 140 148 146 142 148 149 156 147 144 144 146 145 143 144 147 154 158 149 152 146 144 132 125 135 134 123 126 133 139 232 280 311 317 330 331 335 348 21 349 87 82 73 65 21 349 337 135 143 147 143 128 128 128 126 126 126 124 123 120
134 140 145 151 154 158 156 155 154 148 152 150 149 144 132 125 122 133 131 135 147 144 143 140 131 125 138 148 150 151 152 135 141 145 147 148 143 143 154 156 160 160 160 164 168 158 150 142 137 147 144 136 136 146 166 225 272 290 312 324 332 335 339 12 351 104 89 80 53 23 340 232 152 152 154 145 133 131 131 132 131 130 129 127 126
138 142 152 154 162 163 164 162 162 163 162 162 163 158 151 144 139 152 149 150 144 139 140 135 131 121 125 139 145 149 149 143 134 132 133 142 144 147 158 165 158 158 160 172 172 159 152 143 154 163 157 153 152 163 192 217 252 284 301 313 320 334 335 39 12 102 110 98 80 18 326 200 162 165 163 148 140 144 141 139 140 135 134 133 133
152 155 155 165 164 168 167 167 171 172 169 174 174 166 165 156 153 157 161 151 148 140 138 136 135 133 138 139 140 141 142 147 145 140 142 145 142 141 154 172 159 156 163 164 165 164 161 166 169 176 172 168 173 190 198 211 234 255 268 289 310 334 328 18 103 59 55 106 109 34 338 222 167 171 171 154 145 138 135 134 144 144 140 141 140
158 178 176 167 173 167 170 170 178 176 174 177 177 174 173 165 160 161 156 156 148 143 137 139 138 145 148 153 147 147 153 151 146 141 124 128 148 144 148 156 156 162 163 176 179 179 185 182 189 189 186 186 189 201 206 209 225 241 262 285 309 326 300 353 145 107 87 38 51 29 334 345 173 174 169 158 147 140 136 133 147 155 148 149 147
179 192 201 185 174 172 173 175 177 180 179 178 179 176 171 167 168 164 160 154 150 146 147 153 154 156 165 161 168 165 162 163 154 138 136 136 138 144 134 126 137 147 160 180 183 187 190 197 202 204 202 189 206 206 230 227 220 228 238 260 297 291 292 272 120 129 129 122 27 324 360 312 196 177 171 168 166 154 164 165 161 160 159 158 155
197 197 206 198 189 178 175 178 180 182 181 182 179 174 172 172 169 170 165 163 161 162 165 163 164 165 174 174 182 182 170 168 157 157 155 149 140 137 143 132 121 127 147 169 187 186 196 206 215 221 215 197 209 199 233 243 251 230 237 255 254 268 266 303 122 138 145 160 178 303 352 305 254 204 178 172 159 143 146 149 168 166 168 165 158
216 212 206 212 198 194 183 179 184 182 180 184 175 172 174 175 173 173 170 173 170 173 172 174 175 174 176 183 187 188 167 175 165 152 143 144 140 128 115 123 134 132 137 149 205 207 195 212 231 254 244 205 215 213 225 247 259 262 221 242 245 246 230 167 182 150 168 171 174 324 352 319 308 179 178 176 171 165 164 165 167 178 179 173 166
206 205 224 222 216 201 194 188 185 182 179 181 172 175 176 174 178 177 176 178 181 182 181 182 181 182 183 187 194 171 162 165 159 153 150 151 160 148 142 159 166 150 151 197 225 228 209 228 260 264 244 211 217 226 228 239 245 245 226 225 229 235 216 208 166 163 192 176 179 175 28 315 326 186 187 181 188 179 197 190 193 196 192 184 175
187 193 209 217 218 207 196 193 189 187 182 173 173 174 172 181 179 181 179 184 184 187 187 188 189 186 187 192 200 161 161 162 163 163 162 165 163 178 177 172 181 183 168 196 214 205 214 226 237 247 246 211 208 220 225 228 231 232 232 233 217 208 191 223 185 181 186 205 197 177 157 344 330 275 201 192 195 193 198 208 210 202 202 195 187
198 205 199 207 208 205 197 189 190 189 190 179 167 171 181 184 182 182 180 189 187 187 194 195 195 191 190 193 199 176 166 167 170 171 173 171 174 176 187 191 190 190 179 188 205 206 207 215 225 236 243 237 225 218 219 226 219 206 222 214 193 200 189 204 210 183 183 196 215 189 180 110 302 321 341 216 198 196 206 217 210 214 205 204 197
197 205 202 203 204 206 195 188 192 183 192 186 177 177 185 186 188 183 188 187 186 194 194 195 195 195 194 195 198 182 172 172 176 177 183 178 183 180 184 192 198 196 181 190 199 204 208 215 219 229 239 246 242 241 235 193 202 180 186 210 201 202 210 202 203 187 190 190 202 216 181 182 169 317 274 262 223 210 202 205 211 215 208 207 208
202 201 198 200 204 200 194 193 191 189 187 187 191 184 185 189 190 189 192 186 193 194 193 192 196 196 194 195 193 186 188 180 178 184 179 187 184 183 183 195 196 198 181 199 198 201 206 207 214 225 229 237 238 240 233 229 225 216 190 209 207 207 216 219 201 200 182 188 195 217 205 181 179 219 272 269 274 237 214 202 214 215 212 209 209
199 196 192 201 196 193 193 194 191 191 188 186 196 194 192 191 194 195 195 186 195 195 192 193 195 191 195 194 195 186 189 190 189 187 179 195 189 186 187 196 198 196 185 195 200 199 201 203 212 220 226 235 237 231 223 222 224 230 210 202 207 209 210 217 213 205 193 179 190 203 220 197 189 194 223 262 267 258 198 220 217 217 218 217 214
191 197 198 196 192 188 197 194 192 190 184 191 196 202 196 205 199 193 196 197 189 190 195 195 193 192 192 191 193 193 187 191 191 193 199 194 196 190 193 189 195 198 194 197 195 201 204 203 205 211 217 223 230 230 213 228 225 220 215 206 209 212 214 211 211 209 205 181 189 200 213 211 202 198 199 226 244 259 220 218 218 219 223 221 219
195 204 201 191 184 195 196 194 191 187 188 196 194 201 203 205 206 198 198 198 188 186 190 193 194 193 188 191 194 197 194 198 195 199 199 199 201 200 197 195 205 200 199 204 209 206 205 214 211 209 210 208 223 234 225 221 231 224 209 215 215 214 216 210 202 209 210 197 191 202 211 215 211 204 205 206 228 242 243 230 221 221 216 219 224
211 202 195 186 196 194 194 196 190 188 191 196 197 202 205 204 201 205 198 191 194 189 188 191 191 191 189 192 195 196 198 200 204 199 198 202 198 197 201 206 203 200 203 207 211 216 215 217 223 211 210 212 220 237 227 217 219 229 212 218 218 220 217 209 212 206 214 204 186 196 207 214 224 216 210 211 213 226 236 235 234 224 221 213 222
209 203 185 198 200 195 196 193 195 194 198 199 197 199 204 205 203 201 197 191 192 193 197 191 191 191 187 193 195 197 199 204 203 206 192 200 199 196 197 205 205 201 204 204 211 214 219 215 218 205 214 209 217 225 222 222 231 240 227 221 211 221 212 217 215 210 208 212 193 183 200 204 210 215 219 221 217 220 229 238 235 230 229 219 224
209 202 199 204 196 197 190 198 197 202 199 203 200 202 201 203 203 200 196 192 193 196 196 197 197 198 196 194 192 197 202 203 206 207 201 199 207 205 200 200 196 201 205 207 207 216 215 221 208 207 213 215 213 213 207 213 217 232 239 215 215 225 225 219 217 212 213 216 211 205 186 198 204 208 217 221 229 222 222 232 237 235 238 232 230
208 206 209 201 201 199 191 197 195 202 203 205 203 202 201 203 203 205 199 191 191 199 199 201 200 198 202 208 194 192 197 202 206 207 211 205 208 211 206 194 194 195 204 207 206 212 215 219 217 200 203 217 209 220 213 220 224 237 245 242 227 221 222 223 220 216 217 209 214 215 211 196 201 206 211 216 216 225 226 226 234 243 241 238 227
209 206 205 201 203 200 196 198 197 203 206 205 203 202 201 203 203 203 204 195 193 200 202 201 202 204 205 208 207 194 192 198 203 207 211 211 210 209 204 197 193 196 200 205 209 210 208 211 217 211 201 207 208 217 225 223 237 240 244 243 240 223 221 217 214 211 204 206 212 216 216 210 199 205 209 213 214 217 228 226 227 234 244 250 239
210 207 205 200 203 199 199 202 204 204 205 202 202 203 203 204 204 204 203 205 205 200 200 197 205 208 206 211 205 205 196 195 201 207 212 215 214 210 202 196 193 196 201 204 210 206 207 202 212 210 203 201 206 209 220 222 225 239 241 239 239 230 225 222 216 210 202 212 212 211 212 214 205 200 201 207 211 213 215 224 227 231 235 236 240
208 208 207 207 206 204 203 208 207 205 204 200 202 205 201 206 207 203 208 214 213 207 198 201 207 206 211 209 202 206 208 203 200 205 214 212 214 215 209 203 196 195 199 206 208 204 205 203 205 209 208 207 200 205 209 208 222 230 235 237 234 226 225 224 220 214 214 213 210 212 208 214 213 213 208 202 203 204 212 216 220 228 236 235 232
206 205 207 204 205 207 205 208 210 203 197 198 194 200 195 198 203 206 215 217 215 210 206 208 204 210 213 205 205 206 209 212 209 206 212 214 212 210 212 206 205 200 205 209 210 204 203 200 206 204 207 216 214 203 200 204 225 231 234 240 235 232 224 218 221 220 216 214 214 211 212 215 214 215 208 207 201 202 205 212 214 221 225 229 225
207 203 203 204 203 205 198 208 205 197 191 194 195 192 197 205 209 205 213 211 211 211 213 213 210 213 210 205 202 207 208 211 216 211 215 217 218 212 206 210 206 206 209 216 211 210 207 203 204 201 204 209 221 206 204 180 204 245 238 245 256 245 237 226 222 222 220 216 210 209 215 213 217 213 212 206 203 203 204 209 212 215 217 218 224
224 208 205 204 204 204 203 209 196 198 202 199 197 199 201 201 199 206 207 206 204 205 214 214 215 215 211 208 206 205 207 211 213 215 214 217 219 217 213 211 206 212 216 217 214 209 206 207 195 205 209 206 219 199 199 160 220 217 217 266 270 263 239 238 239 231 222 218 208 208 209 211 215 216 213 210 211 204 206 208 211 215 214 211 214
216 207 211 202 202 203 208 203 200 200 205 203 199 206 207 209 204 211 206 212 215 215 219 218 218 218 214 212 212 210 208 212 210 213 218 216 220 221 218 212 211 212 213 217 214 212 207 207 203 205 204 221 221 200 197 193 218 183 138 24 257 254 271 255 243 235 227 222 211 213 210 212 216 211 206 207 213 213 209 206 212 215 216 213 210
226 222 214 208 205 208 205 202 204 205 207 206 206 210 208 209 213 216 211 210 210 212 218 219 218 218 220 213 216 213 211 214 212 212 218 221 218 221 223 216 214 210 211 213 213 216 208 210 209 212 203 213 215 220 203 201 199 138 194 212 215 158 300 241 228 234 217 226 214 220 210 215 218 214 203 210 214 212 210 204 212 214 214 213 209
221 217 210 208 210 209 207 202 205 207 209 208 207 206 202 206 208 217 198 218 243 194 204 225 216 216 220 216 219 210 212 214 213 214 214 221 220 220 220 221 216 212 211 215 213 213 211 210 208 209 208 211 216 217 212 202 204 197 175 123 147 218 230 254 164 262 208 224 225 219 215 213 214 210 204 216 215 213 210 209 214 214 215 211 208
231 223 211 212 212 216 210 210 212 212 212 209 203 196 201 199 191 200 210 209 219 207 212 214 207 211 214 218 218 212 213 215 215 218 218 217 222 221 219 220 220 216 213 216 216 212 212 210 208 209 214 216 218 215 219 217 212 206 211 207 160 178 187 222 141 265 299 228 225 217 217 214 215 210 209 212 211 217 212 217 214 218 215 213 208
233 226 220 224 224 226 218 213 214 217 213 205 192 194 205 206 205 208 212 212 218 225 222 221 216 220 217 217 216 213 214 215 217 217 220 219 221 222 220 220 221 221 217 217 217 214 212 212 208 210 215 213 212 221 216 212 212 229 219 225 239 214 148 125 217 320 297 307 232 220 225 219 221 218 212 216 214 216 217 216 219 220 218 212 209
231 226 229 232 230 231 223 222 221 220 211 196 191 195 204 206 211 216 217 221 220 230 213 219 217 212 212 217 212 216 213 216 218 218 220 220 218 221 220 220 221 221 217 218 219 217 215 216 211 213 214 211 210 218 219 208 198 216 209 219 231 238 226 241 173 187 183 245 293 285 267 230 230 228 219 217 216 218 219 217 222 223 219 214 211
240 217 223 225 230 235 232 230 227 220 217 200 198 201 206 209 211 216 223 227 229 234 215 206 207 202 215 215 215 217 216 218 218 220 220 221 218 220 219 220 220 221 216 222 222 218 215 213 211 212 213 214 211 217 219 217 210 218 192 220 226 229 230 235 236 206 222 236 258 227 241 252 253 242 229 224 222 221 219 219 218 222 218 219 213
256 241 248 255 250 244 240 235 237 224 219 211 207 210 211 213 217 221 226 232 227 240 212 220 214 198 216 218 216 217 217 218 220 220 222 222 222 218 219 221 221 220 217 221 221 219 218 216 214 213 215 217 216 215 218 220 215 221 210 208 208 223 230 241 236 227 241 220 246 230 218 199 220 235 220 220 223 223 223 221 220 219 220 220 216
321 339 306 271 272 259 250 247 247 250 227 214 206 218 215 213 222 224 227 233 227 222 227 232 220 211 220 220 216 219 215 220 217 222 222 221 223 220 219 221 221 220 219 221 220 220 218 217 216 215 216 217 217 217 219 224 219 216 217 209 212 207 207 209 219 212 215 224 234 249 240 210 218 244 224 217 220 225 223 221 218 219 219 219 217